Location: Mascot Post Office (historical)
(40.2645°N, 99.5462°W)
Time: 17:22:50
(UTC+00:00)

Meteor 2-2 Rocket - Pass Details

Date: 14 July 2020
Orbit: 852 x 929 km, 81.3° (Epoch: 04 August)

Event Time Altitude Azimuth Distance (km) Brightness Sun altitude
Rises 03:33:13 0° 354° (N) 3,480 8.3 -13.8°
Reaches altitude 10° 03:35:43 10° 358° (N) 2,527 7.4 -14.2°
Maximum altitude 03:41:23 61° 78° (ENE) 974 4.3 -14.9°
Enters shadow 03:45:00 22° 153° (SSE) 1,774 5.3 -15.4°
